| time (UTC) | temp C | wind direction | speed KPH | gust KPH | rain 1hr cm | rain 24hr cm | rain mn cm | humidity % | barometer mb |
| 20260906213035 | 27 | 130 | 11.3 | 30.6 | 0.00 | 0.00 | 0.00 | 28 | 1021.8 |
| 20260906212520 | 27 | 120 | 16.1 | 30.6 | 0.00 | 0.00 | 0.00 | 30 | 1021.9 |
| 20260906212019 | 27 | 141 | 16.1 | 32.2 | 0.00 | 0.00 | 0.00 | 29 | 1021.9 |
| 20260906211536 | 27 | 144 | 16.1 | 32.2 | 0.00 | 0.00 | 0.00 | 30 | 1021.8 |
| 20260906211017 | 27 | 134 | 19.3 | 32.2 | 0.00 | 0.00 | 0.00 | 30 | 1021.9 |
| 20260906210518 | 27 | 85 | 17.7 | 33.8 | 0.00 | 0.00 | 0.00 | 33 | 1021.8 |
| 20260906210044 | 27 | 123 | 17.7 | 33.8 | 0.00 | 0.00 | 0.00 | 31 | 1022.0 |
| 20260906205516 | 27 | 100 | 17.7 | 30.6 | 0.00 | 0.00 | 0.00 | 30 | 1022.0 |
| 20260906205015 | 26 | 123 | 17.7 | 30.6 | 0.00 | 0.00 | 0.00 | 32 | 1022.1 |
| 20260906204537 | 26 | 105 | 8.0 | 27.4 | 0.00 | 0.00 | 0.00 | 32 | 1022.3 |
| 20260906204018 | 27 | 136 | 14.5 | 27.4 | 0.00 | 0.00 | 0.00 | 32 | 1022.5 |
| 20260906203516 | 26 | 102 | 14.5 | 29.0 | 0.00 | 0.00 | 0.00 | 32 | 1022.5 |
| 20260906203040 | 26 | 126 | 14.5 | 29.0 | 0.00 | 0.00 | 0.00 | 31 | 1022.5 |
| 20260906202518 | 27 | 128 | 16.1 | 27.4 | 0.00 | 0.00 | 0.00 | 30 | 1022.7 |
| 20260906202016 | 27 | 93 | 14.5 | 22.5 | 0.00 | 0.00 | 0.00 | 29 | 1022.5 |
| 20260906201600 | 27 | 111 | 9.7 | 20.9 | 0.00 | 0.00 | 0.00 | 29 | 1022.5 |
| 20260906201017 | 26 | 162 | 9.7 | 24.1 | 0.00 | 0.00 | 0.00 | 31 | 1022.6 |
| 20260906200518 | 26 | 126 | 4.8 | 24.1 | 0.00 | 0.00 | 0.00 | 31 | 1022.5 |
| 20260906200036 | 27 | 128 | 16.1 | 24.1 | 0.00 | 0.00 | 0.00 | 28 | 1022.7 |
| 20260906195518 | 27 | 121 | 14.5 | 25.7 | 0.00 | 0.00 | 0.00 | 27 | 1022.5 |
| 20260906195018 | 26 | 130 | 14.5 | 25.7 | 0.00 | 0.00 | 0.00 | 31 | 1022.7 |
| 20260906194540 | 27 | 104 | 16.1 | 30.6 | 0.00 | 0.00 | 0.00 | 27 | 1022.6 |
| 20260906194019 | 27 | 131 | 16.1 | 32.2 | 0.00 | 0.00 | 0.00 | 28 | 1022.8 |
| 20260906193516 | 27 | 101 | 20.9 | 32.2 | 0.00 | 0.00 | 0.00 | 27 | 1022.8 |
| 20260906193036 | 27 | 92 | 4.8 | 27.4 | 0.00 | 0.00 | 0.00 | 28 | 1022.9 |
| 20260906192517 | 27 | 223 | 11.3 | 27.4 | 0.00 | 0.00 | 0.00 | 26 | 1023.0 |
| 20260906192020 | 27 | 101 | 12.9 | 27.4 | 0.00 | 0.00 | 0.00 | 28 | 1023.0 |
| 20260906191536 | 27 | 163 | 9.7 | 29.0 | 0.00 | 0.00 | 0.00 | 27 | 1023.0 |
| 20260906191021 | 27 | 135 | 17.7 | 29.0 | 0.00 | 0.00 | 0.00 | 28 | 1023.1 |
| 20260906190518 | 27 | 142 | 12.9 | 22.5 | 0.00 | 0.00 | 0.00 | 28 | 1023.2 |
| 20260906190039 | 27 | 123 | 11.3 | 24.1 | 0.00 | 0.00 | 0.00 | 27 | 1023.2 |
| 20260906185524 | 27 | 97 | 16.1 | 24.1 | 0.00 | 0.00 | 0.00 | 29 | 1023.4 |
| 20260906185021 | 26 | 96 | 17.7 | 24.1 | 0.00 | 0.00 | 0.00 | 29 | 1023.4 |
| 20260906184545 | 27 | 117 | 14.5 | 24.1 | 0.00 | 0.00 | 0.00 | 27 | 1023.5 |
| 20260906184016 | 26 | 138 | 12.9 | 24.1 | 0.00 | 0.00 | 0.00 | 30 | 1023.7 |
| 20260906183516 | 26 | 86 | 11.3 | 24.1 | 0.00 | 0.00 | 0.00 | 29 | 1023.8 |
| 20260906183041 | 26 | 111 | 12.9 | 22.5 | 0.00 | 0.00 | 0.00 | 28 | 1023.8 |
| 20260906182515 | 26 | 94 | 11.3 | 24.1 | 0.00 | 0.00 | 0.00 | 28 | 1023.9 |
| 20260906182021 | 26 | 117 | 11.3 | 25.7 | 0.00 | 0.00 | 0.00 | 29 | 1023.9 |
| 20260906181552 | 26 | 156 | 14.5 | 25.7 | 0.00 | 0.00 | 0.00 | 29 | 1024.0 |
| 20260906181021 | 26 | 134 | 14.5 | 25.7 | 0.00 | 0.00 | 0.00 | 28 | 1024.0 |
| 20260906180520 | 26 | 113 | 12.9 | 20.9 | 0.00 | 0.00 | 0.00 | 28 | 1024.1 |
| 20260906180035 | 26 | 55 | 12.9 | 20.9 | 0.00 | 0.00 | 0.00 | 28 | 1024.2 |
| 20260906175520 | 26 | 105 | 9.7 | 22.5 | 0.00 | 0.00 | 0.00 | 27 | 1024.2 |
| 20260906175022 | 26 | 123 | 6.4 | 22.5 | 0.00 | 0.00 | 0.00 | 28 | 1024.2 |
| 20260906174537 | 26 | 110 | 3.2 | 17.7 | 0.00 | 0.00 | 0.00 | 28 | 1024.3 |
| 20260906174019 | 26 | 116 | 9.7 | 17.7 | 0.00 | 0.00 | 0.00 | 29 | 1024.2 |
| 20260906173515 | 26 | 71 | 6.4 | 27.4 | 0.00 | 0.00 | 0.00 | 29 | 1024.4 |
| 20260906173034 | 26 | 87 | 14.5 | 27.4 | 0.00 | 0.00 | 0.00 | 31 | 1024.2 |
| 20260906172516 | 25 | 53 | 8.0 | 25.7 | 0.00 | 0.00 | 0.00 | 31 | 1024.4 |
| 20260906172015 | 25 | 29 | 4.8 | 22.5 | 0.00 | 0.00 | 0.00 | 34 | 1024.4 |
| 20260906171537 | 25 | 311 | 8.0 | 22.5 | 0.00 | 0.00 | 0.00 | 33 | 1024.6 |
| 20260906171020 | 24 | 55 | 8.0 | 19.3 | 0.00 | 0.00 | 0.00 | 35 | 1024.7 |
| 20260906170519 | 24 | 5 | 6.4 | 17.7 | 0.00 | 0.00 | 0.00 | 36 | 1024.7 |
| 20260906170034 | 24 | 38 | 8.0 | 17.7 | 0.00 | 0.00 | 0.00 | 35 | 1024.8 |
| 20260906165522 | 24 | 5 | 9.7 | 16.1 | 0.00 | 0.00 | 0.00 | 36 | 1024.8 |
| 20260906165016 | 24 | 17 | 8.0 | 17.7 | 0.00 | 0.00 | 0.00 | 36 | 1024.9 |
| 20260906164535 | 24 | 33 | 11.3 | 17.7 | 0.00 | 0.00 | 0.00 | 36 | 1024.8 |
| 20260906164018 | 24 | 5 | 4.8 | 16.1 | 0.00 | 0.00 | 0.00 | 36 | 1024.9 |
| 20260906163518 | 23 | 38 | 6.4 | 14.5 | 0.00 | 0.00 | 0.00 | 36 | 1024.9 |
| 20260906163040 | 23 | 76 | 6.4 | 14.5 | 0.00 | 0.00 | 0.00 | 37 | 1025.0 |
| 20260906162521 | 23 | 346 | 9.7 | 14.5 | 0.00 | 0.00 | 0.00 | 36 | 1024.9 |
| 20260906162018 | 23 | 355 | 6.4 | 14.5 | 0.00 | 0.00 | 0.00 | 37 | 1024.9 |
| 20260906161542 | 23 | 58 | 4.8 | 16.1 | 0.00 | 0.00 | 0.00 | 37 | 1024.9 |
| 20260906161020 | 23 | 15 | 6.4 | 16.1 | 0.00 | 0.00 | 0.00 | 37 | 1024.9 |
| 20260906160519 | 23 | 52 | 8.0 | 16.1 | 0.00 | 0.00 | 0.00 | 37 | 1025.0 |
| 20260906160039 | 22 | 57 | 8.0 | 16.1 | 0.00 | 0.00 | 0.00 | 37 | 1025.0 |
| 20260906155519 | 22 | 15 | 1.6 | 12.9 | 0.00 | 0.00 | 0.00 | 39 | 1024.9 |
| 20260906155019 | 22 | 0 | 4.8 | 12.9 | 0.00 | 0.00 | 0.00 | 39 | 1024.9 |
| 20260906154538 | 22 | 34 | 4.8 | 11.3 | 0.00 | 0.00 | 0.00 | 41 | 1024.9 |
| 20260906154016 | 22 | 82 | 4.8 | 11.3 | 0.00 | 0.00 | 0.00 | 40 | 1024.8 |
| 20260906153516 | 22 | 311 | 4.8 | 12.9 | 0.00 | 0.00 | 0.00 | 41 | 1024.8 |
| 20260906153036 | 21 | 344 | 6.4 | 14.5 | 0.00 | 0.00 | 0.00 | 41 | 1024.8 |
| 20260906152518 | 21 | 5 | 8.0 | 14.5 | 0.00 | 0.00 | 0.00 | 42 | 1024.7 |
| 20260906152021 | 21 | 12 | 8.0 | 14.5 | 0.00 | 0.00 | 0.00 | 43 | 1024.8 |
| 20260906151535 | 21 | 60 | 6.4 | 14.5 | 0.00 | 0.00 | 0.00 | 42 | 1025.0 |
| 20260906151020 | 21 | 11 | 4.8 | 14.5 | 0.00 | 0.00 | 0.00 | 42 | 1024.9 |
| 20260906150520 | 21 | 49 | 4.8 | 12.9 | 0.00 | 0.00 | 0.00 | 41 | 1024.8 |
| 20260906150037 | 21 | 360 | 3.2 | 8.0 | 0.00 | 0.00 | 0.00 | 41 | 1024.7 |
| 20260906145518 | 20 | 9 | 1.6 | 8.0 | 0.00 | 0.00 | 0.00 | 44 | 1024.7 |
| 20260906145019 | 20 | 0 | 1.6 | 8.0 | 0.00 | 0.00 | 0.00 | 44 | 1024.7 |
| 20260906144537 | 20 | 346 | 1.6 | 12.9 | 0.00 | 0.00 | 0.00 | 45 | 1024.8 |
| 20260906144016 | 20 | 355 | 6.4 | 12.9 | 0.00 | 0.00 | 0.00 | 46 | 1024.8 |
| 20260906143519 | 19 | 30 | 3.2 | 11.3 | 0.00 | 0.00 | 0.00 | 48 | 1024.8 |
| 20260906143040 | 19 | 0 | 4.8 | 11.3 | 0.00 | 0.00 | 0.00 | 48 | 1024.7 |
| 20260906142519 | 19 | 300 | 3.2 | 9.7 | 0.00 | 0.00 | 0.00 | 48 | 1024.6 |
| 20260906142018 | 18 | 324 | 4.8 | 9.7 | 0.00 | 0.00 | 0.00 | 48 | 1024.6 |
| 20260906141536 | 18 | 341 | 6.4 | 9.7 | 0.00 | 0.00 | 0.00 | 48 | 1024.6 |
| 20260906141024 | 18 | 322 | 1.6 | 6.4 | 0.00 | 0.00 | 0.00 | 50 | 1024.7 |
| 20260906140519 | 18 | 0 | 1.6 | 3.2 | 0.00 | 0.00 | 0.00 | 51 | 1024.7 |
| 20260906140047 | 18 | 0 | 0.0 | 3.2 | 0.00 | 0.00 | 0.00 | 51 | 1024.7 |
| 20260906135520 | 17 | 32 | 0.0 | 3.2 | 0.00 | 0.00 | 0.00 | 53 | 1024.7 |
| 20260906135019 | 17 | 0 | 0.0 | 3.2 | 0.00 | 0.00 | 0.00 | 53 | 1024.5 |
| 20260906134534 | 16 | 0 | 0.0 | 3.2 | 0.00 | 0.00 | 0.00 | 56 | 1024.5 |
| 20260906134016 | 16 | 0 | 0.0 | 3.2 | 0.00 | 0.00 | 0.00 | 58 | 1024.5 |
| 20260906133518 | 15 | 32 | 0.0 | 3.2 | 0.00 | 0.00 | 0.00 | 61 | 1024.4 |
| 20260906133039 | 15 | 0 | 0.0 | 4.8 | 0.00 | 0.00 | 0.00 | 64 | 1024.4 |
| 20260906132520 | 15 | 0 | 0.0 | 4.8 | 0.00 | 0.00 | 0.00 | 64 | 1024.3 |
| 20260906132019 | 13 | 0 | 0.0 | 4.8 | 0.00 | 0.00 | 0.00 | 67 | 1024.3 |
| 20260906131533 | 12 | 190 | 1.6 | 4.8 | 0.00 | 0.00 | 0.00 | 69 | 1024.2 |
| 20260906131015 | 12 | 0 | 1.6 | 4.8 | 0.00 | 0.00 | 0.00 | 69 | 1024.1 |
| 20260906130519 | 12 | 0 | 0.0 | 3.2 | 0.00 | 0.00 | 0.00 | 68 | 1024.0 |
| 20260906130035 | 12 | 0 | 0.0 | 6.4 | 0.00 | 0.00 | 0.00 | 71 | 1024.1 |
| 20260906125518 | 11 | 0 | 0.0 | 6.4 | 0.00 | 0.00 | 0.00 | 73 | 1024.2 |
| 20260906125017 | 11 | 244 | 3.2 | 6.4 | 0.00 | 0.00 | 0.00 | 74 | 1024.0 |
| 20260906124538 | 11 | 0 | 0.0 | 0.0 | 0.00 | 0.00 | 0.00 | 74 | 1024.1 |
| 20260906124016 | 11 | 0 | 0.0 | 0.0 | 0.00 | 0.00 | 0.00 | 75 | 1024.3 |
| 20260906123519 | 10 | 0 | 0.0 | 0.0 | 0.00 | 0.00 | 0.00 | 75 | 1024.1 |
| 20260906123036 | 10 | 0 | 0.0 | 0.0 | 0.00 | 0.00 | 0.00 | 75 | 1024.0 |
| 20260906122518 | 11 | 0 | 0.0 | 0.0 | 0.00 | 0.00 | 0.00 | 75 | 1024.1 |
| 20260906122020 | 11 | 0 | 0.0 | 3.2 | 0.00 | 0.00 | 0.00 | 76 | 1024.0 |
| 20260906121536 | 10 | 0 | 0.0 | 3.2 | 0.00 | 0.00 | 0.00 | 77 | 1024.1 |
| 20260906121015 | 10 | 196 | 0.0 | 1.6 | 0.00 | 0.00 | 0.00 | 78 | 1024.0 |
| 20260906120516 | 10 | 0 | 0.0 | 1.6 | 0.00 | 0.00 | 0.00 | 78 | 1023.9 |
| 20260906120034 | 10 | 0 | 0.0 | 1.6 | 0.00 | 0.00 | 0.00 | 78 | 1024.2 |
| 20260906115521 | 10 | 0 | 0.0 | 0.0 | 0.00 | 0.00 | 0.00 | 79 | 1024.0 |
| 20260906115018 | 10 | 0 | 0.0 | 1.6 | 0.00 | 0.00 | 0.00 | 78 | 1024.0 |
| 20260906114542 | 10 | 0 | 0.0 | 1.6 | 0.00 | 0.00 | 0.00 | 77 | 1023.9 |
| 20260906114019 | 10 | 0 | 0.0 | 3.2 | 0.00 | 0.00 | 0.00 | 78 | 1023.9 |
| 20260906113519 | 10 | 0 | 0.0 | 3.2 | 0.00 | 0.00 | 0.00 | 77 | 1023.9 |
| 20260906113035 | 10 | 0 | 0.0 | 3.2 | 0.00 | 0.00 | 0.00 | 77 | 1023.9 |
| 20260906112519 | 10 | 0 | 0.0 | 1.6 | 0.00 | 0.00 | 0.00 | 77 | 1023.9 |
| 20260906112019 | 10 | 0 | 0.0 | 1.6 | 0.00 | 0.00 | 0.00 | 76 | 1023.9 |
| 20260906111535 | 10 | 0 | 0.0 | 4.8 | 0.00 | 0.00 | 0.00 | 74 | 1023.8 |
| 20260906111016 | 11 | 0 | 0.0 | 4.8 | 0.00 | 0.00 | 0.00 | 74 | 1023.7 |
| 20260906110518 | 10 | 209 | 3.2 | 4.8 | 0.00 | 0.00 | 0.00 | 76 | 1023.6 |
| 20260906110036 | 10 | 0 | 0.0 | 6.4 | 0.00 | 0.00 | 0.00 | 77 | 1023.7 |
| 20260906105519 | 10 | 0 | 0.0 | 8.0 | 0.00 | 0.00 | 0.00 | 77 | 1023.7 |
| 20260906105021 | 10 | 217 | 4.8 | 8.0 | 0.00 | 0.00 | 0.00 | 77 | 1023.8 |
| 20260906104536 | 10 | 215 | 0.0 | 8.0 | 0.00 | 0.00 | 0.00 | 78 | 1023.8 |
| 20260906104022 | 10 | 0 | 0.0 | 8.0 | 0.00 | 0.00 | 0.00 | 77 | 1023.8 |
| 20260906103518 | 10 | 219 | 4.8 | 8.0 | 0.00 | 0.00 | 0.00 | 75 | 1023.8 |
| 20260906103033 | 11 | 0 | 0.0 | 4.8 | 0.00 | 0.00 | 0.00 | 75 | 1023.9 |
| 20260906102518 | 11 | 0 | 0.0 | 4.8 | 0.00 | 0.00 | 0.00 | 75 | 1023.9 |
| 20260906102018 | 11 | 196 | 3.2 | 4.8 | 0.00 | 0.00 | 0.00 | 75 | 1023.9 |
| 20260906101536 | 11 | 209 | 1.6 | 4.8 | 0.00 | 0.00 | 0.00 | 74 | 1024.0 |
| 20260906101020 | 12 | 0 | 0.0 | 0.0 | 0.00 | 0.00 | 0.00 | 74 | 1023.9 |
| 20260906100518 | 12 | 0 | 0.0 | 0.0 | 0.00 | 0.00 | 0.00 | 73 | 1024.0 |
| 20260906100038 | 12 | 0 | 0.0 | 0.0 | 0.00 | 0.00 | 0.00 | 72 | 1024.0 |
| 20260906095520 | 12 | 0 | 0.0 | 6.4 | 0.00 | 0.00 | 0.00 | 72 | 1024.2 |
| 20260906095019 | 12 | 0 | 0.0 | 6.4 | 0.00 | 0.00 | 0.00 | 72 | 1024.2 |
| 20260906094546 | 12 | 209 | 3.2 | 6.4 | 0.00 | 0.00 | 0.00 | 72 | 1024.4 |
| 20260906094019 | 12 | 187 | 1.6 | 8.0 | 0.00 | 0.00 | 0.00 | 72 | 1024.3 |
| 20260906093519 | 13 | 233 | 3.2 | 8.0 | 0.00 | 0.00 | 0.00 | 70 | 1024.2 |
| 20260906093039 | 14 | 279 | 1.6 | 6.4 | 0.00 | 0.00 | 0.00 | 67 | 1024.2 |
| 20260906092518 | 14 | 0 | 0.0 | 0.0 | 0.00 | 0.00 | 0.00 | 67 | 1024.0 |
| 20260906092016 | 15 | 0 | 0.0 | 0.0 | 0.00 | 0.00 | 0.00 | 67 | 1024.0 |
| 20260906091540 | 15 | 0 | 0.0 | 0.0 | 0.00 | 0.00 | 0.00 | 64 | 1023.8 |
| 20260906091016 | 15 | 0 | 0.0 | 0.0 | 0.00 | 0.00 | 0.00 | 63 | 1023.9 |
| 20260906090520 | 15 | 0 | 0.0 | 0.0 | 0.00 | 0.00 | 0.00 | 64 | 1023.8 |
| 20260906090039 | 15 | 0 | 0.0 | 0.0 | 0.00 | 0.00 | 0.00 | 65 | 1023.9 |
| 20260906085520 | 15 | 0 | 0.0 | 0.0 | 0.00 | 0.00 | 0.00 | 66 | 1023.9 |
| 20260906085019 | 16 | 0 | 0.0 | 0.0 | 0.00 | 0.00 | 0.00 | 65 | 1023.9 |
| 20260906084541 | 16 | 0 | 0.0 | 0.0 | 0.00 | 0.00 | 0.00 | 64 | 1023.8 |
| 20260906084019 | 16 | 0 | 0.0 | 0.0 | 0.00 | 0.00 | 0.00 | 67 | 1023.9 |
| 20260906083518 | 16 | 0 | 0.0 | 0.0 | 0.00 | 0.00 | 0.00 | 69 | 1023.9 |
| 20260906083037 | 16 | 0 | 0.0 | 1.6 | 0.00 | 0.00 | 0.00 | 69 | 1023.9 |
| 20260906082518 | 16 | 0 | 0.0 | 3.2 | 0.00 | 0.00 | 0.00 | 71 | 1024.0 |
| 20260906082019 | 16 | 0 | 0.0 | 3.2 | 0.00 | 0.00 | 0.00 | 71 | 1023.9 |
| 20260906081542 | 16 | 130 | 0.0 | 3.2 | 0.00 | 0.00 | 0.00 | 73 | 1023.9 |
| 20260906081018 | 16 | 0 | 0.0 | 3.2 | 0.00 | 0.00 | 0.00 | 73 | 1024.0 |
| 20260906080519 | 15 | 0 | 0.0 | 3.2 | 0.00 | 0.00 | 0.00 | 74 | 1024.1 |
| 20260906080039 | 15 | 0 | 0.0 | 3.2 | 0.00 | 0.00 | 0.00 | 74 | 1024.0 |
| 20260906075519 | 15 | 0 | 0.0 | 6.4 | 0.00 | 0.00 | 0.00 | 74 | 1024.0 |
| 20260906075023 | 15 | 0 | 0.0 | 6.4 | 0.00 | 0.00 | 0.00 | 74 | 1024.1 |
| 20260906074543 | 15 | 109 | 4.8 | 6.4 | 0.00 | 0.00 | 0.00 | 74 | 1024.1 |
| 20260906074019 | 15 | 0 | 0.0 | 4.8 | 0.00 | 0.00 | 0.00 | 75 | 1024.2 |
| 20260906073521 | 15 | 132 | 1.6 | 4.8 | 0.00 | 0.00 | 0.00 | 75 | 1024.2 |
| 20260906073041 | 15 | 0 | 0.0 | 4.8 | 0.00 | 0.00 | 0.00 | 75 | 1024.1 |
| 20260906072519 | 15 | 128 | 0.0 | 8.0 | 0.00 | 0.00 | 0.00 | 75 | 1024.2 |
| 20260906072017 | 15 | 205 | 1.6 | 8.0 | 0.00 | 0.00 | 0.00 | 75 | 1024.2 |
| 20260906071540 | 15 | 219 | 4.8 | 8.0 | 0.00 | 0.00 | 0.00 | 75 | 1024.2 |
| 20260906071020 | 15 | 253 | 1.6 | 3.2 | 0.00 | 0.00 | 0.00 | 75 | 1024.2 |
| 20260906070516 | 15 | 289 | 0.0 | 3.2 | 0.00 | 0.00 | 0.00 | 74 | 1024.2 |
| 20260906070040 | 15 | 0 | 0.0 | 1.6 | 0.00 | 0.00 | 0.00 | 74 | 1024.3 |
| 20260906065519 | 15 | 289 | 0.0 | 1.6 | 0.00 | 0.00 | 0.00 | 74 | 1024.2 |
| 20260906065018 | 15 | 0 | 0.0 | 0.0 | 0.00 | 0.00 | 0.00 | 73 | 1024.3 |
| 20260906064539 | 16 | 0 | 0.0 | 3.2 | 0.00 | 0.00 | 0.00 | 73 | 1024.5 |
| 20260906064020 | 16 | 0 | 0.0 | 3.2 | 0.00 | 0.00 | 0.00 | 73 | 1024.4 |
| 20260906063517 | 16 | 289 | 0.0 | 3.2 | 0.00 | 0.00 | 0.00 | 74 | 1024.4 |
| 20260906063037 | 16 | 0 | 0.0 | 6.4 | 0.00 | 0.00 | 0.00 | 73 | 1024.5 |
| 20260906062518 | 16 | 289 | 1.6 | 11.3 | 0.00 | 0.00 | 0.00 | 73 | 1024.4 |
| 20260906062019 | 16 | 165 | 3.2 | 11.3 | 0.00 | 0.00 | 0.00 | 72 | 1024.6 |
| 20260906061542 | 16 | 114 | 1.6 | 11.3 | 0.00 | 0.00 | 0.00 | 71 | 1024.6 |
| 20260906061019 | 16 | 0 | 0.0 | 8.0 | 0.00 | 0.00 | 0.00 | 72 | 1024.6 |
| 20260906060518 | 16 | 0 | 3.2 | 9.7 | 0.00 | 0.00 | 0.00 | 73 | 1024.4 |
| 20260906060058 | 15 | 0 | 3.2 | 9.7 | 0.00 | 0.00 | 0.00 | 75 | 1024.4 |
| 20260906055519 | 15 | 313 | 4.8 | 9.7 | 0.00 | 0.00 | 0.00 | 76 | 1024.4 |
| 20260906055020 | 15 | 0 | 0.0 | 4.8 | 0.00 | 0.00 | 0.00 | 76 | 1024.3 |
| 20260906054539 | 14 | 198 | 3.2 | 4.8 | 0.00 | 0.00 | 0.00 | 76 | 1024.1 |
| 20260906054019 | 14 | 198 | 3.2 | 4.8 | 0.00 | 0.00 | 0.00 | 75 | 1024.1 |
| 20260906053521 | 15 | 198 | 1.6 | 4.8 | 0.00 | 0.00 | 0.00 | 74 | 1024.0 |
| 20260906053037 | 15 | 198 | 0.0 | 3.2 | 0.00 | 0.00 | 0.00 | 73 | 1023.9 |
| 20260906052522 | 15 | 0 | 0.0 | 6.4 | 0.00 | 0.00 | 0.00 | 73 | 1023.9 |
| 20260906052019 | 15 | 0 | 0.0 | 6.4 | 0.00 | 0.00 | 0.00 | 72 | 1023.9 |
| 20260906051535 | 16 | 198 | 1.6 | 6.4 | 0.00 | 0.00 | 0.00 | 70 | 1023.9 |
| 20260906051016 | 16 | 172 | 1.6 | 8.0 | 0.00 | 0.00 | 0.00 | 70 | 1024.0 |
| 20260906050516 | 16 | 186 | 3.2 | 8.0 | 0.00 | 0.00 | 0.00 | 70 | 1024.0 |
| 20260906050039 | 16 | 193 | 1.6 | 8.0 | 0.00 | 0.00 | 0.00 | 69 | 1023.9 |
| 20260906045521 | 16 | 184 | 1.6 | 8.0 | 0.00 | 0.00 | 0.00 | 68 | 1024.0 |
| 20260906045022 | 17 | 175 | 3.2 | 8.0 | 0.00 | 0.00 | 0.00 | 67 | 1024.1 |
| 20260906044536 | 17 | 219 | 1.6 | 6.4 | 0.00 | 0.00 | 0.00 | 66 | 1024.1 |
| 20260906044024 | 17 | 197 | 0.0 | 8.0 | 0.00 | 0.00 | 0.00 | 64 | 1024.2 |
| 20260906043520 | 18 | 213 | 4.8 | 11.3 | 0.00 | 0.00 | 0.00 | 63 | 1024.4 |
| 20260906043039 | 18 | 212 | 3.2 | 12.9 | 0.00 | 0.00 | 0.00 | 63 | 1024.4 |
| 20260906042516 | 18 | 169 | 4.8 | 14.5 | 0.00 | 0.00 | 0.00 | 62 | 1024.3 |
| 20260906042019 | 18 | 195 | 6.4 | 16.1 | 0.00 | 0.00 | 0.00 | 63 | 1024.4 |
| 20260906041537 | 18 | 186 | 8.0 | 16.1 | 0.00 | 0.00 | 0.00 | 64 | 1024.4 |
| 20260906041019 | 17 | 207 | 4.8 | 12.9 | 0.00 | 0.00 | 0.00 | 66 | 1024.5 |
| 20260906040516 | 18 | 179 | 3.2 | 9.7 | 0.00 | 0.00 | 0.00 | 65 | 1024.4 |
| 20260906040041 | 18 | 178 | 4.8 | 9.7 | 0.00 | 0.00 | 0.00 | 63 | 1024.3 |
| 20260906035528 | 18 | 205 | 3.2 | 11.3 | 0.00 | 0.00 | 0.00 | 62 | 1024.4 |
| 20260906035017 | 18 | 159 | 1.6 | 11.3 | 0.00 | 0.00 | 0.00 | 62 | 1024.3 |
| 20260906034539 | 18 | 128 | 3.2 | 11.3 | 0.00 | 0.00 | 0.00 | 63 | 1024.4 |
| 20260906034018 | 19 | 161 | 1.6 | 12.9 | 0.00 | 0.00 | 0.00 | 63 | 1024.3 |
| 20260906033518 | 19 | 126 | 4.8 | 12.9 | 0.00 | 0.00 | 0.00 | 63 | 1024.4 |
| 20260906033035 | 19 | 144 | 3.2 | 12.9 | 0.00 | 0.00 | 0.00 | 62 | 1024.3 |
| 20260906032518 | 20 | 132 | 4.8 | 12.9 | 0.00 | 0.00 | 0.00 | 61 | 1024.3 |
| 20260906032022 | 20 | 143 | 4.8 | 16.1 | 0.00 | 0.00 | 0.00 | 61 | 1024.2 |
| 20260906031605 | 20 | 137 | 6.4 | 17.7 | 0.00 | 0.00 | 0.00 | 60 | 1024.2 |
| 20260906031018 | 20 | 116 | 6.4 | 17.7 | 0.00 | 0.00 | 0.00 | 60 | 1024.2 |
| 20260906030518 | 20 | 130 | 4.8 | 14.5 | 0.00 | 0.00 | 0.00 | 60 | 1024.0 |
| 20260906030039 | 20 | 107 | 6.4 | 16.1 | 0.00 | 0.00 | 0.00 | 60 | 1023.9 |
| 20260906025524 | 20 | 132 | 8.0 | 17.7 | 0.00 | 0.00 | 0.00 | 59 | 1023.7 |
| 20260906025018 | 20 | 111 | 9.7 | 20.9 | 0.00 | 0.00 | 0.00 | 58 | 1023.7 |
| 20260906024541 | 20 | 99 | 8.0 | 20.9 | 0.00 | 0.00 | 0.00 | 58 | 1023.8 |
| 20260906024019 | 20 | 145 | 9.7 | 17.7 | 0.00 | 0.00 | 0.00 | 57 | 1023.7 |
| 20260906023519 | 20 | 110 | 9.7 | 17.7 | 0.00 | 0.00 | 0.00 | 57 | 1023.6 |
| 20260906023053 | 20 | 110 | 8.0 | 14.5 | 0.00 | 0.00 | 0.00 | 55 | 1023.7 |
| 20260906022518 | 19 | 117 | 3.2 | 12.9 | 0.00 | 0.00 | 0.00 | 49 | 1023.7 |
| 20260906022018 | 18 | 110 | 3.2 | 12.9 | 0.00 | 0.00 | 0.00 | 44 | 1023.7 |
| 20260906021535 | 18 | 113 | 8.0 | 12.9 | 0.00 | 0.00 | 0.00 | 42 | 1023.6 |
| 20260906021022 | 18 | 0 | 0.0 | 6.4 | 0.00 | 0.00 | 0.00 | 41 | 1023.2 |
| 20260906020521 | 19 | 271 | 3.2 | 4.8 | 0.00 | 0.00 | 0.00 | 40 | 1023.1 |
| 20260906020047 | 20 | 271 | 1.6 | 4.8 | 0.00 | 0.00 | 0.00 | 38 | 1023.0 |
| 20260906015519 | 20 | 0 | 0.0 | 1.6 | 0.00 | 0.00 | 0.00 | 35 | 1022.9 |
| 20260906015019 | 21 | 0 | 0.0 | 3.2 | 0.00 | 0.00 | 0.00 | 35 | 1022.9 |
| 20260906014535 | 21 | 0 | 0.0 | 3.2 | 0.00 | 0.00 | 0.00 | 33 | 1022.8 |
| 20260906014021 | 21 | 271 | 1.6 | 3.2 | 0.00 | 0.00 | 0.00 | 33 | 1022.8 |
| 20260906013519 | 22 | 0 | 0.0 | 0.0 | 0.00 | 0.00 | 0.00 | 32 | 1022.9 |
| 20260906013038 | 22 | 0 | 0.0 | 0.0 | 0.00 | 0.00 | 0.00 | 32 | 1022.8 |
| 20260906012515 | 22 | 0 | 0.0 | 3.2 | 0.00 | 0.00 | 0.00 | 31 | 1023.0 |
| 20260906012020 | 23 | 0 | 0.0 | 4.8 | 0.00 | 0.00 | 0.00 | 30 | 1023.0 |
| 20260906011539 | 23 | 271 | 1.6 | 6.4 | 0.00 | 0.00 | 0.00 | 29 | 1023.0 |
| 20260906011018 | 24 | 271 | 3.2 | 6.4 | 0.00 | 0.00 | 0.00 | 27 | 1023.0 |
| 20260906010517 | 24 | 271 | 3.2 | 4.8 | 0.00 | 0.00 | 0.00 | 27 | 1023.0 |
| 20260906010039 | 25 | 271 | 0.0 | 4.8 | 0.00 | 0.00 | 0.00 | 26 | 1023.1 |
| 20260906005519 | 25 | 0 | 0.0 | 4.8 | 0.00 | 0.00 | 0.00 | 27 | 1023.2 |
| 20260906005016 | 25 | 271 | 1.6 | 6.4 | 0.00 | 0.00 | 0.00 | 27 | 1023.2 |
| 20260906004541 | 24 | 271 | 1.6 | 11.3 | 0.00 | 0.00 | 0.00 | 26 | 1023.4 |
| 20260906004021 | 24 | 271 | 3.2 | 14.5 | 0.00 | 0.00 | 0.00 | 27 | 1023.2 |
| 20260906003516 | 24 | 265 | 8.0 | 14.5 | 0.00 | 0.00 | 0.00 | 27 | 1023.2 |
| 20260906003033 | 24 | 286 | 8.0 | 14.5 | 0.00 | 0.00 | 0.00 | 27 | 1023.2 |
| 20260906002517 | 24 | 279 | 6.4 | 14.5 | 0.00 | 0.00 | 0.00 | 26 | 1023.1 |
| 20260906002019 | 24 | 267 | 8.0 | 16.1 | 0.00 | 0.00 | 0.00 | 26 | 1023.1 |
| 20260906001543 | 24 | 263 | 11.3 | 17.7 | 0.00 | 0.00 | 0.00 | 26 | 1023.1 |
| 20260906001023 | 25 | 281 | 11.3 | 17.7 | 0.00 | 0.00 | 0.00 | 26 | 1023.1 |
| 20260906000519 | 25 | 274 | 8.0 | 14.5 | 0.00 | 0.00 | 0.00 | 26 | 1023.1 |
| 20260906000037 | 25 | 273 | 8.0 | 14.5 | 0.00 | 0.00 | 0.00 | 25 | 1023.0 |
| 20260905235516 | 26 | 308 | 3.2 | 8.0 | 0.00 | 0.00 | 0.00 | 24 | 1023.1 |
| 20260905235024 | 26 | 311 | 3.2 | 8.0 | 0.00 | 0.00 | 0.00 | 22 | 1023.1 |
| 20260905234536 | 26 | 327 | 4.8 | 8.0 | 0.00 | 0.00 | 0.00 | 23 | 1023.1 |
| 20260905234016 | 26 | 298 | 4.8 | 8.0 | 0.00 | 0.00 | 0.00 | 23 | 1023.0 |
| 20260905233518 | 26 | 311 | 3.2 | 8.0 | 0.00 | 0.00 | 0.00 | 23 | 1023.0 |
| 20260905233040 | 26 | 0 | 1.6 | 8.0 | 0.00 | 0.00 | 0.00 | 23 | 1023.0 |
| 20260905232523 | 27 | 348 | 1.6 | 8.0 | 0.00 | 0.00 | 0.00 | 22 | 1022.9 |
| 20260905232021 | 27 | 360 | 4.8 | 8.0 | 0.00 | 0.00 | 0.00 | 21 | 1022.9 |
| 20260905231539 | 27 | 360 | 3.2 | 8.0 | 0.00 | 0.00 | 0.00 | 21 | 1022.9 |
| 20260905231021 | 27 | 360 | 3.2 | 9.7 | 0.00 | 0.00 | 0.00 | 22 | 1022.8 |
| 20260905230519 | 27 | 360 | 0.0 | 9.7 | 0.00 | 0.00 | 0.00 | 21 | 1022.9 |
| 20260905230034 | 27 | 360 | 4.8 | 9.7 | 0.00 | 0.00 | 0.00 | 21 | 1022.9 |
| 20260905225519 | 27 | 0 | 1.6 | 8.0 | 0.00 | 0.00 | 0.00 | 21 | 1022.8 |
| 20260905225016 | 26 | 260 | 1.6 | 6.4 | 0.00 | 0.00 | 0.00 | 22 | 1022.8 |
| 20260905224535 | 26 | 313 | 1.6 | 6.4 | 0.00 | 0.00 | 0.00 | 23 | 1023.0 |
| 20260905224027 | 26 | 183 | 0.0 | 8.0 | 0.00 | 0.00 | 0.00 | 24 | 1023.1 |
| 20260905223517 | 25 | 223 | 3.2 | 8.0 | 0.00 | 0.00 | 0.00 | 24 | 1023.3 |
| 20260905223038 | 25 | 240 | 4.8 | 8.0 | 0.00 | 0.00 | 0.00 | 24 | 1023.2 |
| 20260905222520 | 26 | 225 | 3.2 | 8.0 | 0.00 | 0.00 | 0.00 | 24 | 1023.1 |
| 20260905222024 | 26 | 209 | 3.2 | 14.5 | 0.00 | 0.00 | 0.00 | 25 | 1023.1 |
| 20260905221539 | 26 | 149 | 4.8 | 14.5 | 0.00 | 0.00 | 0.00 | 24 | 1023.1 |
| 20260905221019 | 26 | 161 | 6.4 | 14.5 | 0.00 | 0.00 | 0.00 | 24 | 1023.3 |
| 20260905220518 | 26 | 113 | 1.6 | 12.9 | 0.00 | 0.00 | 0.00 | 23 | 1023.1 |
| 20260905220036 | 26 | 134 | 6.4 | 12.9 | 0.00 | 0.00 | 0.00 | 23 | 1023.1 |
| 20260905215516 | 26 | 81 | 3.2 | 14.5 | 0.00 | 0.00 | 0.00 | 22 | 1023.1 |
| 20260905215019 | 26 | 352 | 3.2 | 14.5 | 0.00 | 0.00 | 0.00 | 22 | 1023.2 |
| 20260905214538 | 26 | 33 | 6.4 | 14.5 | 0.00 | 0.00 | 0.00 | 22 | 1023.2 |
| 20260905214021 | 26 | 51 | 6.4 | 12.9 | 0.00 | 0.00 | 0.00 | 23 | 1023.4 |
| 20260905213518 | 26 | 33 | 4.8 | 12.9 | 0.00 | 0.00 | 0.00 | 23 | 1023.4 |